MXGP Trentino Quali Resultate

Quali MX2:

Pos Nr Rider Nat. Fed. Bike Time laps Diff. First Diff. Prev. Bestlaptime in lap Speed
1 84 Herlings, Jeffrey NED KNMV KTM 24:59.244 14 0:00.000 0:00.000 1:45.054 5 57
2 243 Gajser, Tim SLO AMZS Honda 25:13.711 14 0:14.467 0:14.467 1:45.735 3 57
3 1 Tixier, Jordi FRA FFM Kawasaki 25:19.755 14 0:20.511 0:06.044 1:46.228 5 56
4 4 Ferrandis, Dylan FRA FFM Kawasaki 25:22.419 14 0:23.175 0:02.664 1:45.810 5 56
5 92 Guillod, Valentin SUI FMS Yamaha 25:26.471 14 0:27.227 0:04.052 1:45.441 5 57
6 59 Tonkov, Aleksandr RUS MFR Husqvarna 25:27.901 14 0:28.657 0:01.430 1:45.893 3 56
7 41 Jonass, Pauls LAT LAMSF KTM 25:28.563 14 0:29.319 0:00.662 1:46.801 4 56
8 51 Getteman, Jens BEL FMB Honda 25:38.873 14 0:39.629 0:10.310 1:46.941 6 56
9 91 Seewer, Jeremy SUI FMS Suzuki 25:39.655 14 0:40.411 0:00.782 1:46.618 6 56
10 99 Anstie, Max GBR ACU Kawasaki 25:41.003 14 0:41.759 0:01.348 1:46.174 5 56
11 172 Van doninck, Brent BEL FMB Yamaha 25:42.733 14 0:43.489 0:01.730 1:47.071 6 56
12 6 Paturel, Benoit FRA FFM Yamaha 25:46.231 14 0:46.987 0:03.498 1:47.467 5 56
13 18 Brylyakov, Vsevolod RUS MFR Honda 25:50.928 14 0:51.684 0:04.697 1:47.633 4 56
14 919 Watson, Ben GBR ACU KTM 26:03.058 14 1:03.814 0:12.130 1:48.445 5 55
15 33 Lieber, Julien BEL FMB Yamaha 26:08.084 14 1:08.840 0:05.026 1:48.638 8 55
16 189 Bogers, Brian NED KNMV KTM 26:12.563 14 1:13.319 0:04.479 1:49.067 5 55
17 152 Petrov, Petar BUL QMMF KTM 26:15.098 14 1:15.854 0:02.535 1:48.717 12 55
18 211 Jaulin, Sullivan FRA DMSB Honda 26:15.711 14 1:16.467 0:00.613 1:49.103 6 55
19 128 Monticelli, Ivo ITA FMI KTM 26:19.250 14 1:20.006 0:03.539 1:49.223 12 55
20 64 Covington, Thomas USA FFM Kawasaki 26:23.888 14 1:24.644 0:04.638 1:48.530 10 55
21 556 Mallet, Simon FRA FFM Honda 26:34.842 14 1:35.598 0:10.954 1:51.119 5 54
22 95 Justs, Roberts LAT LAMSF KTM 26:40.861 14 1:41.617 0:06.019 1:51.242 3 54
23 922 Fors, Kevin BEL FMB Yamaha 26:43.303 14 1:44.059 0:02.442 1:51.712 5 53
24 29 Jacobi, Henry GER DMSB KTM 26:47.394 14 1:48.150 0:04.091 1:50.530 11 54
25 30 Hjortmarker, Eddie SWE SVEMO KTM 26:49.359 14 1:50.115 0:01.965 1:51.458 3 54
26 373 Irsuti, Yannis FRA FFM Yamaha 25:02.168 13 1 lap 1 lap 1:52.350 10 53
27 555 Guryev, Artem RUS MFR KTM 25:04.248 13 1 lap 0:02.080 1:52.044 5 53
28 274 Lundgren, Anton SWE SVEMO Husqvarna 25:08.134 13 1 lap 0:03.886 1:49.869 5 54
29 15 Bonini, Davide ITA FMI Husqvarna 25:10.874 13 1 lap 0:02.740 1:52.227 9 53
30 132 Kutsar, Karel EST EMF KTM 25:22.931 13 1 lap 0:12.057 1:52.417 10 53
31 71 Valente, Christopher SUI FMS Husqvarna 25:34.820 13 1 lap 0:11.889 1:53.330 4 53
32 300 Golovkin, Viacheslav RUS FMI KTM 25:45.609 13 1 lap 0:10.789 1:54.868 4 52
33 97 Ivanov, Michael BUL QMMF Husqvarna 25:46.489 13 1 lap 0:00.880 1:52.697 4 53
34 601 Ciola, Francesco ITA FMI Suzuki 25:52.072 13 1 lap 0:05.583 1:55.324 3 52

Quali MXGP:

Pos Nr Rider Nat. Fed. Bike Time laps Diff. First Diff. Prev. Bestlaptime in lap Speed
1 777 Bobryshev, Evgeny RUS FSM Honda 25:03.328 14 0:00.000 0:00.000 1:45.191 6 57
2 222 Cairoli, Antonio ITA FMI KTM 25:05.165 14 0:01.837 0:01.837 1:44.438 5 57
3 21 Paulin, Gautier FRA MCM Honda 25:07.193 14 0:03.865 0:02.028 1:44.446 4 57
4 2 Villopoto, Ryan USA AMA Kawasaki 25:08.103 14 0:04.775 0:00.910 1:45.125 10 57
5 461 Febvre, Romain FRA FFM Yamaha 25:09.482 14 0:06.154 0:01.379 1:45.035 6 57
6 12 Nagl, Maximilian GER DMSB Husqvarna 25:10.388 14 0:07.060 0:00.906 1:45.607 5 57
7 24 Simpson, Shaun GBR ACU KTM 25:11.520 14 0:08.192 0:01.132 1:45.237 7 57
8 9 de Dycker, Ken BEL FMB KTM 25:28.863 14 0:25.535 0:17.343 1:45.586 5 57
9 183 Frossard, Steven FRA FFM KTM 25:32.296 14 0:28.968 0:03.433 1:46.799 6 56
10 121 Boog, Xavier FRA FFM Kawasaki 25:36.055 14 0:32.727 0:03.759 1:46.815 5 56
11 100 Searle, Tommy GBR ACU KTM 25:37.855 14 0:34.527 0:01.800 1:45.942 6 56
12 47 Waters, Todd AUS MA Husqvarna 25:38.964 14 0:35.636 0:01.109 1:47.098 4 56
13 19 Philippaerts, David ITA FMI Yamaha 25:40.527 14 0:37.199 0:01.563 1:47.221 7 56
14 23 Charlier, Christophe FRA FFM Honda 25:42.812 14 0:39.484 0:02.285 1:47.505 6 56
15 39 Guarneri, Davide ITA FMI TM 25:45.205 14 0:41.877 0:02.393 1:47.903 12 55
16 259 Coldenhoff, Glenn NED KNMV Suzuki 25:47.344 14 0:44.016 0:02.139 1:47.744 4 55
17 111 Ferris, Dean AUS MA Husqvarna 25:52.913 14 0:49.585 0:05.569 1:47.926 3 55
18 40 Leok, Tanel EST EMF Kawasaki 25:55.277 14 0:51.949 0:02.364 1:47.577 6 56
19 89 Van Horebeek, Jeremy BEL FMB Yamaha 25:57.025 14 0:53.697 0:01.748 1:46.479 3 56
20 20 Aranda, Gregory FRA DMSB Kawasaki 26:10.676 14 1:07.348 0:13.651 1:49.043 7 55
21 120 Soubeyras, Cedric FRA FFM Yamaha 26:11.578 14 1:08.250 0:00.902 1:47.668 6 56
22 25 Desalle, Clement BEL FMB Suzuki 26:15.680 14 1:12.352 0:04.102 1:45.409 6 57
23 156 Heidecke, Angus GER DMSB KTM 26:18.885 14 1:15.557 0:03.205 1:49.701 8 54
24 999 Goncalves, Rui POR FMP Husqvarna 26:21.029 14 1:17.701 0:02.144 1:49.534 12 55
25 11 Bengtsson, Filip SWE SVEMO Honda 26:30.308 14 1:26.980 0:09.279 1:48.470 3 55
26 400 Yamamoto, Kei JPN MFJ Honda 26:34.153 14 1:30.825 0:03.845 1:49.845 4 54
27 149 Ullrich, Dennis GER DMSB Suzuki 26:38.737 14 1:35.409 0:04.584 1:50.327 5 54
28 600 Ivanovs, Davis LAT LAMSF Kawasaki 26:49.797 14 1:46.469 0:11.060 1:50.969 5 54
29 214 Zeni, Samuel ITA FMI Kawasaki 25:04.103 13 1 lap 1 lap 1:52.390 4 53
30 173 Bertuzzo, Pier Filippo ITA FMI Yamaha 25:25.204 13 1 lap 0:21.101 1:51.912 7 53
31 62 Gercar, Klemen SLO AMZS Husqvarna 25:34.961 13 1 lap 0:09.757 1:52.146 6 53
32 43 De Bortoli, Davide ITA FMI Honda 26:43.332 13 1 lap 1:08.371 1:50.469 5 54
33 28 Rattray, Tyla RSA MSA Kawasaki 3:31.253 2 12 laps 11 laps 1:21.631 2 73
34 17 Butron, Jose ESP RFME KTM 2:10.363 1 13 laps 1 lap 1:55.041 1 52
35 77 Lupino, Alessandro ITA FMI Honda 2:15.815 1 13 laps 0:05.452 1:59.729 1 50
Download result as PDF

 

Quelle: mxgp.com

Kommentar hinzufügen

Du musst eingelogged sein um einen Kommentar zu verfassen.